When you browse on this site, cookies collect data to enhance your experience and personalize the content and advertising you see.
Visit our Privacy Policy to learn more. By continuing to use the site, you agree to this use of cookies and data.
  • In Deutschland
  • Länderverzeichnis
  • Für 7 Tage
  • Wassertemperatur
  • Wetterkarte
  • Widgets
  • user-avatar
    Anmelden

    Stündliche Wetter Loon op Zand

    Heute, 23 Februar, Sonntag

    Zeit Temperatur Niederschläge Wind Luftdruck Luftfeuchtigkeit
    00:00 +8°C° 0 mm 6 m/S 764 mmHg 80%
    01:00 +8°C° 0.7 mm 6 m/S 764 mmHg 83%
    02:00 +8°C° 0.7 mm 7 m/S 763 mmHg 85%
    03:00 +6°C° 0.7 mm 7 m/S 762 mmHg 88%
    04:00 +8°C° 1.6 mm 7 m/S 761 mmHg 89%
    05:00 +7°C° 1.6 mm 8 m/S 760 mmHg 89%
    06:00 +7°C° 0 mm 4 m/S 759 mmHg 89%
    07:00 +7°C° 1.7 mm 8 m/S 758 mmHg 86%
    08:00 +9°C° 1.7 mm 11 m/S 757 mmHg 83%
    09:00 +10°C° 1.7 mm 14 m/S 756 mmHg 81%
    10:00 +12°C° 0.3 mm 14 m/S 756 mmHg 80%
    11:00 +12°C° 0.3 mm 14 m/S 756 mmHg 80%
    12:00 +12°C° 0 mm 12 m/S 756 mmHg 77%
    13:00 +10°C° 0.4 mm 12 m/S 756 mmHg 79%
    14:00 +10°C° 0.4 mm 12 m/S 757 mmHg 81%
    15:00 +9°C° 0.4 mm 12 m/S 757 mmHg 83%
    16:00 +8°C° 0.1 mm 10 m/S 759 mmHg 80%
    17:00 +6°C° 0.1 mm 9 m/S 760 mmHg 76%
    18:00 +5°C° 0.1 mm 7 m/S 762 mmHg 73%
    19:00 +4°C° 0 mm 6 m/S 763 mmHg 72%
    20:00 +5°C° 0 mm 5 m/S 764 mmHg 71%
    21:00 +4°C° 0 mm 4 m/S 765 mmHg 70%
    22:00 +4°C° 0 mm 4 m/S 766 mmHg 71%
    23:00 +4°C° 0 mm 3 m/S 766 mmHg 73%

    Morgen, 24 Februar, Montag

    Zeit Temperatur Niederschläge Wind Luftdruck Luftfeuchtigkeit
    00:00 +3°C° 0 mm 3 m/S 767 mmHg 75%
    01:00 +3°C° 0 mm 3 m/S 767 mmHg 76%
    02:00 +3°C° 0 mm 3 m/S 767 mmHg 78%
    03:00 +3°C° 0 mm 2 m/S 766 mmHg 80%
    04:00 +4°C° 0 mm 2 m/S 766 mmHg 80%
    05:00 +3°C° 0 mm 3 m/S 765 mmHg 81%
    06:00 +3°C° 0 mm 3 m/S 765 mmHg 81%
    07:00 +3°C° 0.2 mm 4 m/S 763 mmHg 82%
    08:00 +3°C° 0.2 mm 5 m/S 762 mmHg 83%
    09:00 +3°C° 0.2 mm 6 m/S 761 mmHg 83%
    10:00 +5°C° 0.2 mm 6 m/S 759 mmHg 86%
    11:00 +8°C° 0.2 mm 7 m/S 758 mmHg 88%
    12:00 +10°C° 0.2 mm 7 m/S 757 mmHg 91%
    13:00 +10°C° 0 mm 8 m/S 756 mmHg 87%
    14:00 +10°C° 0 mm 9 m/S 755 mmHg 84%
    15:00 +9°C° 0 mm 10 m/S 753 mmHg 81%
    16:00 +9°C° 0.4 mm 11 m/S 753 mmHg 82%
    17:00 +8°C° 0.4 mm 11 m/S 752 mmHg 83%
    18:00 +8°C° 0.4 mm 11 m/S 752 mmHg 85%
    19:00 +8°C° 0.1 mm 10 m/S 752 mmHg 84%
    20:00 +9°C° 0.1 mm 10 m/S 751 mmHg 83%
    21:00 +9°C° 0.1 mm 10 m/S 751 mmHg 82%
    22:00 +8°C° 0.1 mm 9 m/S 751 mmHg 80%
    23:00 +7°C° 0.1 mm 9 m/S 751 mmHg 77%

    übermorgen, 25 Februar, Dienstag

    Zeit Temperatur Niederschläge Wind Luftdruck Luftfeuchtigkeit
    00:00 +6°C° 0.1 mm 9 m/S 751 mmHg 75%
    01:00 +5°C° 0 mm 8 m/S 751 mmHg 74%
    02:00 +5°C° 0 mm 8 m/S 751 mmHg 73%
    03:00 +4°C° 0 mm 8 m/S 751 mmHg 72%
    04:00 +4°C° 0 mm 7 m/S 751 mmHg 73%
    05:00 +3°C° 0 mm 7 m/S 751 mmHg 74%
    06:00 +3°C° 0 mm 6 m/S 751 mmHg 75%
    07:00 +3°C° 0.1 mm 7 m/S 751 mmHg 73%
    08:00 +4°C° 0.1 mm 7 m/S 751 mmHg 70%
    09:00 +4°C° 0.1 mm 7 m/S 751 mmHg 68%
    10:00 +5°C° 0.1 mm 8 m/S 750 mmHg 65%
    11:00 +5°C° 0.1 mm 8 m/S 750 mmHg 63%
    12:00 +6°C° 0.1 mm 8 m/S 750 mmHg 60%
    13:00 +6°C° 0.2 mm 8 m/S 749 mmHg 61%
    14:00 +5°C° 0.2 mm 8 m/S 749 mmHg 62%
    15:00 +5°C° 0.2 mm 8 m/S 748 mmHg 63%
    16:00 +4°C° 0.1 mm 7 m/S 748 mmHg 66%
    17:00 +5°C° 0.1 mm 5 m/S 748 mmHg 69%
    18:00 +4°C° 0.1 mm 4 m/S 748 mmHg 72%
    19:00 +3°C° 0.1 mm 4 m/S 747 mmHg 75%
    20:00 +3°C° 0.1 mm 4 m/S 746 mmHg 79%
    21:00 +3°C° 0.1 mm 4 m/S 746 mmHg 82%
    22:00 +1°C° 0.5 mm 4 m/S 745 mmHg 85%
    23:00 +1°C° 0.5 mm 4 m/S 744 mmHg 89%

    26 Februar, Mittwoch

    Zeit Temperatur Niederschläge Wind Luftdruck Luftfeuchtigkeit
    00:00 +1°C° 0.5 mm 4 m/S 744 mmHg 93%
    01:00 +1°C° 1.6 mm 5 m/S 743 mmHg 92%
    02:00 -1°C° 1.6 mm 7 m/S 743 mmHg 91%
    03:00 -1°C° 1.6 mm 8 m/S 743 mmHg 90%
    04:00 -1°C° 0.8 mm 7 m/S 743 mmHg 92%
    05:00 -1°C° 0.8 mm 7 m/S 743 mmHg 94%
    06:00 -2°C° 0.8 mm 6 m/S 744 mmHg 96%
    07:00 -1°C° 0.7 mm 6 m/S 744 mmHg 93%
    08:00 +1°C° 0.7 mm 5 m/S 745 mmHg 90%
    09:00 +2°C° 0.7 mm 5 m/S 746 mmHg 86%
    10:00 +2°C° 0.2 mm 5 m/S 747 mmHg 82%
    11:00 +3°C° 0.2 mm 6 m/S 748 mmHg 78%
    12:00 +4°C° 0.2 mm 7 m/S 749 mmHg 74%
    13:00 +4°C° 0.1 mm 7 m/S 749 mmHg 74%
    14:00 +3°C° 0.1 mm 7 m/S 750 mmHg 75%
    15:00 +3°C° 0.1 mm 7 m/S 751 mmHg 75%
    16:00 +2°C° 0.1 mm 6 m/S 751 mmHg 77%
    17:00 +2°C° 0.1 mm 5 m/S 752 mmHg 79%
    18:00 +1°C° 0.1 mm 5 m/S 753 mmHg 82%
    19:00 +1°C° 0 mm 4 m/S 753 mmHg 82%
    20:00 +1°C° 0 mm 4 m/S 754 mmHg 83%
    21:00 +1°C° 0 mm 3 m/S 755 mmHg 83%
    22:00 0°C° 0.1 mm 4 m/S 755 mmHg 84%
    23:00 0°C° 0.1 mm 4 m/S 755 mmHg 84%

    27 Februar, Donnerstag

    Zeit Temperatur Niederschläge Wind Luftdruck Luftfeuchtigkeit
    00:00 0°C° 0.1 mm 4 m/S 756 mmHg 84%
    01:00 0°C° 0 mm 4 m/S 756 mmHg 84%
    02:00 0°C° 0 mm 4 m/S 756 mmHg 84%
    03:00 0°C° 0 mm 3 m/S 756 mmHg 84%
    04:00 -1°C° 0 mm 4 m/S 755 mmHg 83%
    05:00 -1°C° 0 mm 4 m/S 755 mmHg 82%
    06:00 -1°C° 0 mm 5 m/S 755 mmHg 82%
    07:00 0°C° 0.1 mm 5 m/S 754 mmHg 86%
    08:00 -1°C° 0.1 mm 6 m/S 754 mmHg 90%
    09:00 -1°C° 0.1 mm 6 m/S 753 mmHg 95%
    10:00 -1°C° 0.4 mm 6 m/S 752 mmHg 95%
    11:00 -1°C° 0.4 mm 6 m/S 751 mmHg 95%
    12:00 +1°C° 0.4 mm 6 m/S 750 mmHg 96%
    13:00 -1°C° 1.6 mm 6 m/S 748 mmHg 96%
    14:00 -1°C° 1.6 mm 6 m/S 747 mmHg 96%
    15:00 -2°C° 1.6 mm 6 m/S 745 mmHg 97%
    16:00 0°C° 1 mm 5 m/S 745 mmHg 97%
    17:00 0°C° 1 mm 4 m/S 744 mmHg 97%
    18:00 +1°C° 1 mm 3 m/S 744 mmHg 98%
    19:00 +1°C° 0 mm 3 m/S 745 mmHg 97%
    20:00 0°C° 0 mm 4 m/S 746 mmHg 96%
    21:00 0°C° 0 mm 4 m/S 747 mmHg 95%
    22:00 +1°C° 0 mm 3 m/S 748 mmHg 95%
    23:00 +1°C° 0 mm 3 m/S 748 mmHg 94%

    28 Februar, Freitag

    Zeit Temperatur Niederschläge Wind Luftdruck Luftfeuchtigkeit
    00:00 0°C° 0 mm 3 m/S 749 mmHg 94%
    01:00 0°C° 0 mm 3 m/S 750 mmHg 94%
    02:00 +2°C° 0 mm 2 m/S 750 mmHg 93%
    03:00 +2°C° 0 mm 2 m/S 750 mmHg 93%
    04:00 +2°C° 0.1 mm 2 m/S 750 mmHg 94%
    05:00 +2°C° 0.1 mm 2 m/S 751 mmHg 94%
    06:00 +2°C° 0.1 mm 2 m/S 751 mmHg 94%
    07:00 +3°C° 0.1 mm 2 m/S 751 mmHg 94%
    08:00 +3°C° 0.1 mm 2 m/S 751 mmHg 93%
    09:00 +4°C° 0.1 mm 2 m/S 751 mmHg 92%
    10:00 +4°C° 0 mm 3 m/S 751 mmHg 88%
    11:00 +5°C° 0 mm 3 m/S 750 mmHg 84%
    12:00 +6°C° 0 mm 4 m/S 750 mmHg 80%
    13:00 +6°C° 0.1 mm 4 m/S 750 mmHg 81%
    14:00 +6°C° 0.1 mm 4 m/S 749 mmHg 82%
    15:00 +6°C° 0.1 mm 4 m/S 749 mmHg 83%
    16:00 +7°C° 0.9 mm 3 m/S 748 mmHg 86%
    17:00 +5°C° 0.9 mm 3 m/S 748 mmHg 88%
    18:00 +5°C° 0.9 mm 3 m/S 748 mmHg 91%
    19:00 +4°C° 0.1 mm 3 m/S 747 mmHg 90%
    20:00 +4°C° 0.1 mm 2 m/S 747 mmHg 89%
    21:00 +4°C° 0.1 mm 2 m/S 746 mmHg 88%
    22:00 +4°C° 0 mm 2 m/S 745 mmHg 89%
    23:00 +3°C° 0 mm 2 m/S 745 mmHg 89%
    Mehr zeigen